Welcome to the New NWS' Forecast!
Most changes are behind the scenes, but click here for differences you might notice.

Regional Weather Roundup (RWR)

Issued by Gray - Portland, ME (GYX)

                            
000
ASUS41 KGYX 161705
RWRGYX
WEATHER ROUNDUP FOR MAINE AND NEW HAMPSHIRE
NATIONAL WEATHER SERVICE GRAY ME
100 PM EDT TUE OCT 16 2018

MEZ002-005-006-010-012-015-018-020-021-024-026-027-029-161800-
MAINE
  
CITY           SKY/WX    TMP DP  RH WIND       PRES   REMARKS
PORTLAND       FAIR      55  30  38 W15G21    29.93F                  
SANFORD        FAIR      54  30  40 W16G26    29.94F                  
BAR HARBOR     FAIR      52  31  44 W12G23    29.84S                  
WISCASSET      FAIR      53  30  41 W8        29.92R                  
ROCKLAND       FAIR      53  32  44 W20       29.88S                  
FRYEBURG       FAIR      52  26  36 NW9G20    29.92F                  
LEWISTONAUBURN FAIR      52  28  39 NW13G21   29.91F                  
AUGUSTA        FAIR      51  28  41 W17G25    29.90S                  
WATERVILLE     FAIR      51  29  42 W12G26    29.86F                  
BANGOR         FAIR      52  28  39 NW12G26   29.85S                  
GREENVILLE       N/A     41  27  57 NW17G28   29.78F                  
MILLINOCKET    FAIR      47  27  45 W16G29    29.80S                  
HOULTON        FAIR      47  29  49 W15G30    29.70S                  
PRESQUE ISLE   FAIR      46  28  49 W25G36    29.68R                  
FRENCHVILLE    CLOUDY    46  28  49 W15G37    29.64R                  
CARIBOU        FAIR      48  29  47 W14G28    29.64R                  
$$

NHZ002-005-008-009-011-012-014-161800-
NEW HAMPSHIRE
  
CITY           SKY/WX    TMP DP  RH WIND       PRES   REMARKS
PORTSMOUTH     MOSUNNY   56  30  37 W15       29.95F                  
ROCHESTER      FAIR      54  31  41 W9G21     29.95F                  
NASHUA         FAIR      54  30  40 W15G24    30.00F                  
MANCHESTER     FAIR      55  28  35 W9G23     29.98F                  
CONCORD        FAIR      55  31  39 W13G23    29.98F                  
LACONIA        FAIR      52  27  38 W14G26    29.96F                  
PLYMOUTH       FAIR      52  27  38 W14G21    29.95F                  
BERLIN         FAIR      47  28  47 W14G29    29.92F                  
WHITEFIELD     FAIR      47  29  49 NW15G23   29.96F                  
JAFFREY        FAIR      49  30  48 W10G21    30.01F                  
KEENE          FAIR      52  31  44 W15       30.02F                  
LEBANON        FAIR      53  28  38 NW10      29.98F                  
MT WASHINGTON  FOG       19  19 100 W67         N/A  VSB 1/16WCI  -6  
$$

VTZ005-007-008-161800-
VERMONT
  
CITY           SKY/WX    TMP DP  RH WIND       PRES   REMARKS
ST JOHNSBURY     N/A     47  29  49 MISG      29.96F                  
MONTPELIER     FAIR      47  30  51 W16G30    30.01F                  
BURLINGTON     PTSUNNY   49  28  44 W9        30.02F                  
$$

MAZ007-012-024-CTZ003-RIZ002-NYZ038-NYZ072-161800-
SOUTHERN NEW ENGLAND AND NY
  
CITY           SKY/WX    TMP DP  RH WIND       PRES   REMARKS
BOSTON         FAIR      57  31  37 W10G21    30.00F                  
WORCESTER      FAIR      50  31  48 W14G24    30.01F                  
NANTUCKET      FAIR      56  35  45 W9        30.03F                  
PROVIDENCE     PTSUNNY   54  34  46 W8        30.05F                  
HARTFORD       FAIR      56  33  42 NW14      30.06F                  
ALBANY         FAIR      51  33  50 W10G24    30.09F                  
NEW YORK CITY  PTSUNNY   54  30  40 NW8       30.12F                  
$$

ANZ081-ANZ082-ANZ150-NHZ014-MEZ023>029-161800-
COASTAL MARINE OBSERVATIONS
  
STATION/POSITION TIME  TEMP    WIND        PRES    WAVE
                       AIR SEA DIR/SP/G            HT/PER
                 (UTC) (F)     (DEG/KT/KT) (MB)    (FT/S)
MOUNT DESERT ROC 1700   50     260/ 23/ 27 1011.2F
MATINICUS ROCK   1600   49     280/ 25/ 27 1011.7R
ISLE OF SHOALS   1600   51     280/ 18/ 20 1014.7F
JEFFREYS LEDGE   1606      57                N/A     4/ 5
$$

.............KEY..............
   WCI - WIND CHILL
   TC  - TEMPERATURE IN CELSIUS
   VSB - VISIBILITY IN MILES
   HX  - HEAT INDEX
   FAIR- INDICATES FEW OR NO CLOUDS BELOW 12,000 FT, WITH NO 
         SIGNIFICANT WEATHER AND/OR OBSTRUCTIONS TO VISIBILITY.